When you browse on this site, cookies collect data to enhance your experience and personalize the content and advertising you see.
Visit our Privacy Policy to learn more. By continuing to use the site, you agree to this use of cookies and data.
  • En España
  • Lista de países
  • Para 7 días
  • Temperatura del agua
  • El tiempo en el mapa
  • Informadores
  • user-avatar
    Iniciar sesión

    Tiempo cada hora Kipungo

    Hoy, 8 Diciembre, Domingo

    Tiempo Temperatura Precipitaciones Viento Presión Humedad
    00:00 +19°C° 0 mm 3 mps 652 mmHg 90%
    01:00 +19°C° 0 mm 3 mps 652 mmHg 92%
    02:00 +19°C° 0 mm 2 mps 652 mmHg 91%
    03:00 +19°C° 0 mm 2 mps 652 mmHg 91%
    04:00 +19°C° 0 mm 1 mps 651 mmHg 90%
    05:00 +20°C° 0 mm 1 mps 652 mmHg 89%
    06:00 +20°C° 0 mm 1 mps 652 mmHg 87%
    07:00 +19°C° 0 mm 2 mps 653 mmHg 86%
    08:00 +21°C° 0 mm 2 mps 653 mmHg 76%
    09:00 +25°C° 0 mm 2 mps 654 mmHg 65%
    10:00 +27°C° 0 mm 2 mps 654 mmHg 55%
    11:00 +28°C° 0 mm 2 mps 654 mmHg 52%
    12:00 +29°C° 0 mm 2 mps 653 mmHg 48%
    13:00 +30°C° 0 mm 2 mps 653 mmHg 44%
    14:00 +29°C° 0 mm 3 mps 652 mmHg 48%
    15:00 +28°C° 0 mm 3 mps 652 mmHg 51%
    16:00 +27°C° 0 mm 3 mps 651 mmHg 54%
    17:00 +26°C° 0.1 mm 3 mps 651 mmHg 59%
    18:00 +24°C° 0.1 mm 2 mps 651 mmHg 64%
    19:00 +21°C° 0.1 mm 2 mps 651 mmHg 69%
    20:00 +21°C° 0 mm 2 mps 651 mmHg 70%
    21:00 +20°C° 0 mm 2 mps 652 mmHg 70%
    22:00 +20°C° 0 mm 1 mps 652 mmHg 71%
    23:00 +19°C° 0 mm 2 mps 651 mmHg 72%

    Mañana, 9 Diciembre, Lunes

    Tiempo Temperatura Precipitaciones Viento Presión Humedad
    00:00 +18°C° 0 mm 2 mps 651 mmHg 74%
    01:00 +18°C° 0 mm 2 mps 651 mmHg 75%
    02:00 +17°C° 0 mm 2 mps 651 mmHg 77%
    03:00 +17°C° 0 mm 2 mps 651 mmHg 80%
    04:00 +16°C° 0 mm 2 mps 650 mmHg 83%
    05:00 +17°C° 0 mm 2 mps 651 mmHg 78%
    06:00 +19°C° 0 mm 1 mps 652 mmHg 74%
    07:00 +20°C° 0 mm 1 mps 652 mmHg 70%
    08:00 +23°C° 0 mm 1 mps 653 mmHg 59%
    09:00 +25°C° 0 mm 1 mps 654 mmHg 47%
    10:00 +28°C° 0 mm 1 mps 654 mmHg 36%
    11:00 +29°C° 0 mm 2 mps 654 mmHg 34%
    12:00 +30°C° 0 mm 2 mps 654 mmHg 31%
    13:00 +30°C° 0 mm 3 mps 653 mmHg 28%
    14:00 +30°C° 0 mm 3 mps 653 mmHg 30%
    15:00 +29°C° 0 mm 4 mps 652 mmHg 32%
    16:00 +28°C° 0 mm 5 mps 651 mmHg 34%
    17:00 +26°C° 0 mm 4 mps 651 mmHg 41%
    18:00 +24°C° 0 mm 3 mps 651 mmHg 48%
    19:00 +21°C° 0 mm 2 mps 651 mmHg 55%
    20:00 +20°C° 0 mm 2 mps 651 mmHg 59%
    21:00 +19°C° 0 mm 2 mps 652 mmHg 62%
    22:00 +18°C° 0 mm 2 mps 652 mmHg 66%
    23:00 +18°C° 0 mm 2 mps 652 mmHg 72%

    Pasado mañana, 10 Diciembre, Martes

    Tiempo Temperatura Precipitaciones Viento Presión Humedad
    00:00 +17°C° 0 mm 2 mps 651 mmHg 78%
    01:00 +16°C° 0 mm 2 mps 651 mmHg 84%
    02:00 +16°C° 0 mm 1 mps 651 mmHg 88%
    03:00 +15°C° 0 mm 1 mps 651 mmHg 92%
    04:00 +15°C° 0 mm 1 mps 651 mmHg 95%
    05:00 +16°C° 0 mm 1 mps 651 mmHg 91%
    06:00 +18°C° 0 mm 1 mps 652 mmHg 86%
    07:00 +19°C° 0 mm 1 mps 652 mmHg 81%
    08:00 +21°C° 0 mm 1 mps 653 mmHg 65%
    09:00 +24°C° 0 mm 2 mps 653 mmHg 49%
    10:00 +27°C° 0 mm 2 mps 654 mmHg 33%
    11:00 +28°C° 0 mm 2 mps 654 mmHg 31%
    12:00 +29°C° 0 mm 3 mps 654 mmHg 29%
    13:00 +30°C° 0 mm 4 mps 653 mmHg 27%
    14:00 +29°C° 0 mm 4 mps 653 mmHg 29%
    15:00 +29°C° 0 mm 4 mps 652 mmHg 32%
    16:00 +28°C° 0 mm 4 mps 652 mmHg 34%
    17:00 +26°C° 0 mm 3 mps 652 mmHg 42%
    18:00 +22°C° 0 mm 3 mps 652 mmHg 50%
    19:00 +20°C° 0 mm 2 mps 651 mmHg 58%
    20:00 +19°C° 0 mm 2 mps 652 mmHg 61%
    21:00 +18°C° 0 mm 2 mps 652 mmHg 65%
    22:00 +18°C° 0 mm 2 mps 652 mmHg 68%
    23:00 +17°C° 0 mm 2 mps 652 mmHg 73%

    11 Diciembre, Miércoles

    Tiempo Temperatura Precipitaciones Viento Presión Humedad
    00:00 +16°C° 0 mm 2 mps 652 mmHg 78%
    01:00 +16°C° 0 mm 1 mps 652 mmHg 83%
    02:00 +15°C° 0 mm 1 mps 651 mmHg 86%
    03:00 +15°C° 0 mm 1 mps 651 mmHg 88%
    04:00 +14°C° 0 mm 1 mps 651 mmHg 91%
    05:00 +15°C° 0 mm 1 mps 651 mmHg 84%
    06:00 +16°C° 0 mm 1 mps 652 mmHg 78%
    07:00 +19°C° 0 mm 1 mps 653 mmHg 72%
    08:00 +22°C° 0 mm 1 mps 653 mmHg 57%
    09:00 +25°C° 0 mm 1 mps 654 mmHg 43%
    10:00 +28°C° 0 mm 1 mps 655 mmHg 28%
    11:00 +29°C° 0 mm 2 mps 655 mmHg 25%
    12:00 +30°C° 0 mm 3 mps 654 mmHg 22%
    13:00 +31°C° 0 mm 3 mps 654 mmHg 18%
    14:00 +30°C° 0 mm 3 mps 653 mmHg 21%
    15:00 +30°C° 0 mm 3 mps 653 mmHg 23%
    16:00 +29°C° 0 mm 4 mps 652 mmHg 26%
    17:00 +27°C° 0 mm 3 mps 652 mmHg 32%
    18:00 +24°C° 0 mm 3 mps 652 mmHg 39%
    19:00 +21°C° 0 mm 2 mps 651 mmHg 46%
    20:00 +20°C° 0 mm 2 mps 652 mmHg 50%
    21:00 +19°C° 0 mm 2 mps 652 mmHg 54%
    22:00 +18°C° 0 mm 2 mps 653 mmHg 58%
    23:00 +17°C° 0 mm 2 mps 652 mmHg 63%

    12 Diciembre, Jueves

    Tiempo Temperatura Precipitaciones Viento Presión Humedad
    00:00 +17°C° 0 mm 2 mps 652 mmHg 68%
    01:00 +16°C° 0 mm 1 mps 652 mmHg 74%
    02:00 +16°C° 0 mm 1 mps 652 mmHg 75%
    03:00 +15°C° 0 mm 1 mps 651 mmHg 76%
    04:00 +15°C° 0 mm 1 mps 651 mmHg 78%
    05:00 +16°C° 0 mm 1 mps 652 mmHg 73%
    06:00 +18°C° 0 mm 1 mps 652 mmHg 68%
    07:00 +20°C° 0 mm 1 mps 653 mmHg 63%
    08:00 +22°C° 0 mm 0 mps 654 mmHg 52%
    09:00 +26°C° 0 mm 0 mps 655 mmHg 41%
    10:00 +29°C° 0 mm 0 mps 656 mmHg 29%
    11:00 +30°C° 0 mm 0 mps 655 mmHg 27%
    12:00 +33°C° 0 mm 1 mps 655 mmHg 25%
    13:00 +34°C° 0 mm 1 mps 655 mmHg 23%
    14:00 +34°C° 0 mm 1 mps 654 mmHg 24%
    15:00 +34°C° 0 mm 2 mps 653 mmHg 24%
    16:00 +32°C° 0 mm 2 mps 652 mmHg 25%
    17:00 +29°C° 0 mm 2 mps 652 mmHg 32%
    18:00 +26°C° 0 mm 2 mps 652 mmHg 39%
    19:00 +24°C° 0 mm 2 mps 652 mmHg 46%
    20:00 +23°C° 0 mm 2 mps 652 mmHg 49%
    21:00 +21°C° 0 mm 2 mps 653 mmHg 53%
    22:00 +20°C° 0 mm 3 mps 653 mmHg 56%
    23:00 +19°C° 0 mm 2 mps 653 mmHg 60%

    13 Diciembre, Viernes

    Tiempo Temperatura Precipitaciones Viento Presión Humedad
    00:00 +19°C° 0 mm 2 mps 652 mmHg 63%
    01:00 +19°C° 0 mm 1 mps 652 mmHg 66%
    02:00 +19°C° 0 mm 1 mps 652 mmHg 68%
    03:00 +18°C° 0 mm 1 mps 652 mmHg 70%
    04:00 +18°C° 0 mm 1 mps 651 mmHg 73%
    05:00 +19°C° 0 mm 1 mps 652 mmHg 69%
    06:00 +18°C° 0 mm 0 mps 653 mmHg 65%
    07:00 +20°C° 0 mm 0 mps 653 mmHg 61%
    08:00 +25°C° 0 mm 1 mps 654 mmHg 51%
    09:00 +27°C° 0 mm 1 mps 655 mmHg 41%
    10:00 +30°C° 0 mm 2 mps 656 mmHg 31%
    11:00 +32°C° 0 mm 1 mps 655 mmHg 28%
    12:00 +34°C° 0 mm 1 mps 655 mmHg 26%
    13:00 +36°C° 0 mm 1 mps 655 mmHg 24%
    14:00 +35°C° 0 mm 1 mps 654 mmHg 25%
    15:00 +34°C° 0 mm 1 mps 653 mmHg 27%
    16:00 +31°C° 0 mm 0 mps 653 mmHg 28%
    17:00 +30°C° 0 mm 1 mps 652 mmHg 32%
    18:00 +28°C° 0 mm 1 mps 652 mmHg 36%
    19:00 +26°C° 0 mm 1 mps 652 mmHg 40%
    20:00 +25°C° 0 mm 1 mps 652 mmHg 45%
    21:00 +24°C° 0 mm 2 mps 653 mmHg 50%
    22:00 +21°C° 0 mm 2 mps 653 mmHg 55%
    23:00 +21°C° 0 mm 2 mps 653 mmHg 57%
    Mostrar más